When you browse on this site, cookies collect data to enhance your experience and personalize the content and advertising you see.
Visit our Privacy Policy to learn more. By continuing to use the site, you agree to this use of cookies and data.
  • In Hungary
  • List of Countries
  • For 7 days
  • Water Temperature
  • Satellite Maps
  • Weather Map
  • News
  • Weather Widgets
  • user-avatar
    Login

    Hourly Weather San Pedro Sula

    Today, 23 April, Tuesday

    Time Temperature Precipitation Wind Pressure Humidity
    00:00 +22°C° 0 mm 0 mps 746 mmHg 95%
    01:00 +22°C° 0 mm 0 mps 746 mmHg 95%
    02:00 +22°C° 0 mm 0 mps 745 mmHg 95%
    03:00 +22°C° 0 mm 0 mps 745 mmHg 96%
    04:00 +22°C° 0 mm 0 mps 745 mmHg 95%
    05:00 +22°C° 0 mm 0 mps 745 mmHg 95%
    06:00 +22°C° 0 mm 0 mps 745 mmHg 95%
    07:00 +25°C° 0 mm 0 mps 745 mmHg 83%
    08:00 +27°C° 0 mm 0 mps 746 mmHg 71%
    09:00 +30°C° 0 mm 0 mps 746 mmHg 59%
    10:00 +33°C° 0.1 mm 1 mps 746 mmHg 56%
    11:00 +34°C° 0.1 mm 1 mps 745 mmHg 53%
    12:00 +35°C° 0.1 mm 2 mps 745 mmHg 50%
    13:00 +35°C° 0.1 mm 2 mps 744 mmHg 51%
    14:00 +35°C° 0.1 mm 3 mps 744 mmHg 53%
    15:00 +34°C° 0.1 mm 3 mps 743 mmHg 54%
    16:00 +33°C° 0 mm 3 mps 743 mmHg 60%
    17:00 +30°C° 0 mm 2 mps 743 mmHg 67%
    18:00 +28°C° 0 mm 2 mps 743 mmHg 73%
    19:00 +27°C° 0 mm 2 mps 744 mmHg 78%
    20:00 +26°C° 0 mm 1 mps 744 mmHg 83%
    21:00 +25°C° 0 mm 1 mps 745 mmHg 88%
    22:00 +25°C° 0 mm 1 mps 745 mmHg 90%
    23:00 +23°C° 0 mm 0 mps 745 mmHg 91%

    Tomorrow, 24 April, Wednesday

    Time Temperature Precipitation Wind Pressure Humidity
    00:00 +22°C° 0 mm 0 mps 745 mmHg 92%
    01:00 +22°C° 0 mm 0 mps 745 mmHg 93%
    02:00 +22°C° 0 mm 0 mps 744 mmHg 93%
    03:00 +22°C° 0 mm 0 mps 744 mmHg 93%
    04:00 +22°C° 0 mm 0 mps 744 mmHg 93%
    05:00 +24°C° 0 mm 1 mps 744 mmHg 92%
    06:00 +24°C° 0 mm 1 mps 744 mmHg 92%
    07:00 +27°C° 0 mm 1 mps 745 mmHg 80%
    08:00 +30°C° 0 mm 1 mps 745 mmHg 67%
    09:00 +32°C° 0 mm 1 mps 745 mmHg 55%
    10:00 +34°C° 0 mm 1 mps 745 mmHg 50%
    11:00 +36°C° 0 mm 1 mps 745 mmHg 44%
    12:00 +39°C° 0 mm 1 mps 744 mmHg 39%
    13:00 +38°C° 0 mm 2 mps 744 mmHg 42%
    14:00 +37°C° 0 mm 2 mps 743 mmHg 44%
    15:00 +36°C° 0 mm 3 mps 742 mmHg 47%
    16:00 +34°C° 0 mm 3 mps 742 mmHg 56%
    17:00 +31°C° 0 mm 2 mps 742 mmHg 65%
    18:00 +29°C° 0 mm 2 mps 742 mmHg 74%
    19:00 +28°C° 0 mm 1 mps 742 mmHg 79%
    20:00 +27°C° 0 mm 1 mps 743 mmHg 84%
    21:00 +24°C° 0 mm 0 mps 743 mmHg 90%
    22:00 +24°C° 0 mm 0 mps 743 mmHg 91%
    23:00 +24°C° 0 mm 0 mps 743 mmHg 92%

    Day after tomorrow, 25 April, Thursday

    Time Temperature Precipitation Wind Pressure Humidity
    00:00 +23°C° 0 mm 0 mps 743 mmHg 93%
    01:00 +23°C° 0 mm 0 mps 743 mmHg 93%
    02:00 +25°C° 0 mm 1 mps 743 mmHg 93%
    03:00 +25°C° 0 mm 1 mps 742 mmHg 93%
    04:00 +25°C° 0 mm 1 mps 743 mmHg 91%
    05:00 +25°C° 0 mm 1 mps 743 mmHg 90%
    06:00 +25°C° 0 mm 1 mps 743 mmHg 88%
    07:00 +28°C° 0 mm 1 mps 744 mmHg 75%
    08:00 +31°C° 0 mm 1 mps 744 mmHg 62%
    09:00 +34°C° 0 mm 1 mps 745 mmHg 50%
    10:00 +36°C° 0 mm 1 mps 744 mmHg 43%
    11:00 +39°C° 0 mm 1 mps 744 mmHg 37%
    12:00 +41°C° 0 mm 1 mps 743 mmHg 31%
    13:00 +41°C° 0 mm 2 mps 742 mmHg 33%
    14:00 +40°C° 0 mm 2 mps 742 mmHg 34%
    15:00 +40°C° 0 mm 3 mps 741 mmHg 35%
    16:00 +37°C° 0 mm 2 mps 741 mmHg 46%
    17:00 +35°C° 0 mm 2 mps 741 mmHg 57%
    18:00 +31°C° 0 mm 2 mps 742 mmHg 68%
    19:00 +30°C° 0 mm 1 mps 742 mmHg 72%
    20:00 +29°C° 0 mm 1 mps 743 mmHg 77%
    21:00 +26°C° 0 mm 0 mps 744 mmHg 82%
    22:00 +26°C° 0 mm 0 mps 744 mmHg 83%
    23:00 +26°C° 0 mm 0 mps 744 mmHg 83%

    26 April, Friday

    Time Temperature Precipitation Wind Pressure Humidity
    00:00 +25°C° 0 mm 0 mps 744 mmHg 84%
    01:00 +25°C° 0 mm 0 mps 743 mmHg 85%
    02:00 +25°C° 0 mm 0 mps 743 mmHg 87%
    03:00 +25°C° 0 mm 0 mps 743 mmHg 88%
    04:00 +27°C° 0 mm 1 mps 743 mmHg 88%
    05:00 +27°C° 0 mm 1 mps 744 mmHg 87%
    06:00 +27°C° 0 mm 1 mps 744 mmHg 87%
    07:00 +30°C° 0 mm 1 mps 745 mmHg 77%
    08:00 +32°C° 0 mm 1 mps 745 mmHg 67%
    09:00 +34°C° 0 mm 1 mps 745 mmHg 57%
    10:00 +35°C° 0.1 mm 1 mps 745 mmHg 53%
    11:00 +37°C° 0.1 mm 1 mps 744 mmHg 48%
    12:00 +39°C° 0.1 mm 2 mps 744 mmHg 43%
    13:00 +39°C° 0 mm 2 mps 743 mmHg 41%
    14:00 +39°C° 0 mm 2 mps 743 mmHg 39%
    15:00 +39°C° 0 mm 3 mps 742 mmHg 37%
    16:00 +37°C° 0 mm 2 mps 742 mmHg 45%
    17:00 +35°C° 0 mm 2 mps 743 mmHg 53%
    18:00 +31°C° 0 mm 1 mps 743 mmHg 61%
    19:00 +30°C° 0 mm 1 mps 744 mmHg 67%
    20:00 +29°C° 0 mm 1 mps 744 mmHg 73%
    21:00 +26°C° 0 mm 0 mps 745 mmHg 79%
    22:00 +26°C° 0.1 mm 0 mps 745 mmHg 79%
    23:00 +26°C° 0.1 mm 0 mps 745 mmHg 78%

    27 April, Saturday

    Time Temperature Precipitation Wind Pressure Humidity
    00:00 +26°C° 0.1 mm 0 mps 744 mmHg 77%
    01:00 +27°C° 0.9 mm 1 mps 744 mmHg 80%
    02:00 +27°C° 0.9 mm 1 mps 744 mmHg 82%
    03:00 +27°C° 0.9 mm 1 mps 744 mmHg 85%
    04:00 +26°C° 0.7 mm 1 mps 744 mmHg 86%
    05:00 +26°C° 0.7 mm 1 mps 745 mmHg 88%
    06:00 +26°C° 0.7 mm 1 mps 745 mmHg 89%
    07:00 +27°C° 0.1 mm 1 mps 745 mmHg 84%
    08:00 +28°C° 0.1 mm 1 mps 746 mmHg 78%
    09:00 +28°C° 0.1 mm 2 mps 746 mmHg 72%
    10:00 +30°C° 0 mm 2 mps 745 mmHg 62%
    11:00 +34°C° 0 mm 2 mps 745 mmHg 52%
    12:00 +36°C° 0 mm 2 mps 744 mmHg 42%
    13:00 +36°C° 0 mm 2 mps 744 mmHg 41%
    14:00 +36°C° 0 mm 2 mps 743 mmHg 39%
    15:00 +36°C° 0 mm 2 mps 742 mmHg 38%
    16:00 +34°C° 0 mm 2 mps 742 mmHg 45%
    17:00 +31°C° 0 mm 2 mps 743 mmHg 52%
    18:00 +29°C° 0 mm 1 mps 743 mmHg 59%
    19:00 +28°C° 0 mm 1 mps 743 mmHg 66%
    20:00 +27°C° 0 mm 1 mps 744 mmHg 72%
    21:00 +24°C° 0 mm 0 mps 744 mmHg 78%
    22:00 +23°C° 0 mm 0 mps 744 mmHg 78%
    23:00 +23°C° 0 mm 0 mps 744 mmHg 77%

    28 April, Sunday

    Time Temperature Precipitation Wind Pressure Humidity
    00:00 +25°C° 0 mm 1 mps 744 mmHg 77%
    01:00 +25°C° 0 mm 1 mps 744 mmHg 77%
    02:00 +24°C° 0 mm 1 mps 743 mmHg 77%
    03:00 +24°C° 0 mm 1 mps 743 mmHg 77%
    04:00 +24°C° 0 mm 1 mps 744 mmHg 79%
    05:00 +24°C° 0 mm 1 mps 744 mmHg 81%
    06:00 +24°C° 0 mm 1 mps 745 mmHg 82%
    07:00 +27°C° 0 mm 1 mps 745 mmHg 72%
    08:00 +30°C° 0 mm 1 mps 745 mmHg 61%
    09:00 +33°C° 0 mm 1 mps 746 mmHg 50%
    10:00 +34°C° 0 mm 1 mps 745 mmHg 47%
    11:00 +36°C° 0 mm 2 mps 744 mmHg 44%
    12:00 +37°C° 0 mm 2 mps 744 mmHg 41%
    13:00 +36°C° 0 mm 2 mps 743 mmHg 43%
    14:00 +36°C° 0 mm 3 mps 742 mmHg 45%
    15:00 +36°C° 0 mm 3 mps 742 mmHg 47%
    16:00 +34°C° 0 mm 3 mps 742 mmHg 56%
    17:00 +31°C° 0 mm 2 mps 742 mmHg 64%
    18:00 +29°C° 0 mm 2 mps 742 mmHg 73%
    19:00 +28°C° 0 mm 2 mps 743 mmHg 79%
    20:00 +26°C° 0 mm 1 mps 744 mmHg 85%
    21:00 +25°C° 0 mm 1 mps 744 mmHg 91%
    22:00 +25°C° 0 mm 1 mps 744 mmHg 92%
    23:00 +23°C° 0 mm 0 mps 744 mmHg 94%
    Show more